Time,TemperatureF,DewpointF,PressureIn,WindDirection,WindDirectionDegrees,WindSpeedMPH,WindSpeedGustMPH,Humidity,HourlyPrecipIn,Conditions,Clouds,dailyrainin,SoftwareType,DateUTC
2013-03-22 00:03:00,27.0,24.0,29.82,NW,307,2.0,8.0,88,0.00,,,0.00,,2013-03-22 04:03:00,
2013-03-22 00:12:00,27.0,24.0,29.82,NW,307,2.0,8.0,88,0.00,,,0.00,,2013-03-22 04:12:00,
2013-03-22 00:23:00,26.0,23.0,29.82,NW,314,2.0,8.0,90,0.00,,,0.00,,2013-03-22 04:23:00,
2013-03-22 00:32:00,26.0,23.0,29.82,North,350,1.0,8.0,90,0.00,,,0.00,,2013-03-22 04:32:00,
2013-03-22 00:43:00,26.0,23.0,29.82,North,350,1.0,8.0,90,0.00,,,0.00,,2013-03-22 04:43:00,
2013-03-22 00:52:00,26.0,24.0,29.82,WNW,288,2.0,6.0,91,0.00,,,0.00,,2013-03-22 04:52:00,
2013-03-22 01:02:00,26.0,23.0,29.82,NW,310,2.0,8.0,90,0.00,,,0.00,,2013-03-22 05:02:00,
2013-03-22 01:12:00,26.0,23.0,29.82,NW,310,2.0,8.0,90,0.00,,,0.00,,2013-03-22 05:12:00,
2013-03-22 01:22:00,26.0,23.0,29.82,NW,311,2.0,6.0,89,0.00,,,0.00,,2013-03-22 05:22:00,
2013-03-22 01:32:00,25.0,22.0,29.82,WNW,289,1.0,4.0,89,0.00,,,0.00,,2013-03-22 05:32:00,
2013-03-22 01:42:00,25.0,22.0,29.82,WNW,289,1.0,4.0,89,0.00,,,0.00,,2013-03-22 05:42:00,
2013-03-22 01:52:00,25.0,22.0,29.82,NNW,334,2.0,7.0,87,0.00,,,0.00,,2013-03-22 05:52:00,
2013-03-22 02:02:00,25.0,22.0,29.82,West,276,2.0,7.0,87,0.00,,,0.00,,2013-03-22 06:02:00,
2013-03-22 02:13:00,25.0,22.0,29.82,West,276,2.0,7.0,87,0.00,,,0.00,,2013-03-22 06:13:00,
2013-03-22 02:22:00,25.0,22.0,29.82,WNW,291,2.0,6.0,88,0.00,,,0.00,,2013-03-22 06:22:00,
2013-03-22 02:32:00,25.0,22.0,29.82,WNW,298,2.0,7.0,89,0.00,,,0.00,,2013-03-22 06:32:00,
2013-03-22 02:42:00,25.0,22.0,29.82,WNW,298,2.0,7.0,89,0.00,,,0.00,,2013-03-22 06:42:00,
2013-03-22 02:52:00,24.0,21.0,29.82,WNW,288,2.0,5.0,89,0.00,,,0.00,,2013-03-22 06:52:00,
2013-03-22 03:03:00,24.0,22.0,29.82,West,268,2.0,5.0,90,0.00,,,0.00,,2013-03-22 07:03:00,
2013-03-22 03:12:00,24.0,22.0,29.82,West,268,2.0,5.0,90,0.00,,,0.00,,2013-03-22 07:12:00,
2013-03-22 03:22:00,24.0,22.0,29.81,WNW,284,1.0,6.0,90,0.00,,,0.00,,2013-03-22 07:22:00,
2013-03-22 03:32:00,24.0,22.0,29.81,WNW,287,3.0,6.0,91,0.00,,,0.00,,2013-03-22 07:32:00,
2013-03-22 03:42:00,24.0,22.0,29.81,WNW,287,3.0,6.0,91,0.00,,,0.00,,2013-03-22 07:42:00,
2013-03-22 03:52:00,25.0,23.0,29.81,NNW,329,2.0,8.0,91,0.00,,,0.00,,2013-03-22 07:52:00,
2013-03-22 04:03:00,25.0,22.0,29.81,NW,306,3.0,7.0,90,0.00,,,0.00,,2013-03-22 08:03:00,
2013-03-22 04:13:00,25.0,22.0,29.81,NW,306,3.0,7.0,90,0.00,,,0.00,,2013-03-22 08:13:00,
2013-03-22 04:22:00,24.0,21.0,29.81,West,273,3.0,11.0,89,0.00,,,0.00,,2013-03-22 08:22:00,
2013-03-22 04:32:00,24.0,21.0,29.81,WSW,257,3.0,10.0,89,0.00,,,0.00,,2013-03-22 08:32:00,
2013-03-22 04:42:00,24.0,21.0,29.81,WSW,257,3.0,10.0,89,0.00,,,0.00,,2013-03-22 08:42:00,
2013-03-22 04:52:00,24.0,21.0,29.81,WNW,286,4.0,10.0,89,0.00,,,0.00,,2013-03-22 08:52:00,
2013-03-22 05:02:00,24.0,21.0,29.81,West,265,3.0,7.0,89,0.00,,,0.00,,2013-03-22 09:02:00,
2013-03-22 05:12:00,24.0,21.0,29.81,West,265,3.0,7.0,89,0.00,,,0.00,,2013-03-22 09:12:00,
2013-03-22 05:22:00,24.0,21.0,29.81,NW,324,3.0,9.0,89,0.00,,,0.00,,2013-03-22 09:22:00,
2013-03-22 05:32:00,24.0,21.0,29.80,NW,320,3.0,7.0,89,0.00,,,0.00,,2013-03-22 09:32:00,
2013-03-22 05:42:00,24.0,21.0,29.80,NW,320,3.0,7.0,89,0.00,,,0.00,,2013-03-22 09:42:00,
2013-03-22 05:53:00,24.0,21.0,29.80,North,5,3.0,8.0,88,0.00,,,0.00,,2013-03-22 09:53:00,
2013-03-22 06:04:00,24.0,21.0,29.80,SW,219,4.0,10.0,88,0.00,,,0.00,,2013-03-22 10:04:00,
2013-03-22 06:12:00,24.0,21.0,29.80,SW,219,4.0,10.0,88,0.00,,,0.00,,2013-03-22 10:12:00,
2013-03-22 06:22:00,24.0,21.0,29.81,NW,310,3.0,9.0,88,0.00,,,0.00,,2013-03-22 10:22:00,
2013-03-22 06:33:00,25.0,22.0,29.81,WNW,286,3.0,10.0,88,0.00,,,0.00,,2013-03-22 10:33:00,
2013-03-22 06:42:00,25.0,22.0,29.81,WNW,286,3.0,10.0,88,0.00,,,0.00,,2013-03-22 10:42:00,
2013-03-22 06:52:00,25.0,22.0,29.81,WNW,286,3.0,10.0,88,0.00,,,0.00,,2013-03-22 10:52:00,
2013-03-22 07:03:00,25.0,22.0,29.82,WNW,292,4.0,8.0,88,0.00,,,0.00,,2013-03-22 11:03:00,
2013-03-22 07:12:00,25.0,22.0,29.82,WNW,292,4.0,8.0,88,0.00,,,0.00,,2013-03-22 11:12:00,
2013-03-22 07:22:00,25.0,22.0,29.81,WNW,286,3.0,9.0,88,0.00,,,0.00,,2013-03-22 11:22:00,
2013-03-22 07:33:00,25.0,22.0,29.81,WNW,286,3.0,9.0,88,0.00,,,0.00,,2013-03-22 11:33:00,
2013-03-22 07:42:00,25.0,22.0,29.81,WNW,286,3.0,9.0,88,0.00,,,0.00,,2013-03-22 11:42:00,
2013-03-22 07:52:00,25.0,22.0,29.82,NE,41,3.0,8.0,89,0.00,,,0.00,,2013-03-22 11:52:00,
2013-03-22 08:02:00,25.0,22.0,29.83,WNW,287,4.0,12.0,90,0.00,,,0.00,,2013-03-22 12:02:00,
2013-03-22 08:12:00,25.0,22.0,29.83,NW,307,4.0,11.0,89,0.00,,,0.00,,2013-03-22 12:12:00,
2013-03-22 08:22:00,25.0,22.0,29.83,NW,307,4.0,11.0,89,0.00,,,0.00,,2013-03-22 12:22:00,
2013-03-22 08:32:00,26.0,23.0,29.84,West,281,3.0,10.0,89,0.00,,,0.00,,2013-03-22 12:32:00,
2013-03-22 08:42:00,26.0,23.0,29.84,West,281,3.0,10.0,89,0.00,,,0.00,,2013-03-22 12:42:00,
2013-03-22 08:52:00,26.0,23.0,29.84,West,281,3.0,9.0,89,0.00,,,0.00,,2013-03-22 12:52:00,
2013-03-22 09:02:00,26.0,23.0,29.84,NW,312,4.0,9.0,90,0.00,,,0.00,,2013-03-22 13:02:00,
2013-03-22 09:12:00,26.0,23.0,29.84,NW,312,4.0,9.0,90,0.00,,,0.00,,2013-03-22 13:12:00,
2013-03-22 09:22:00,26.0,23.0,29.85,WNW,283,4.0,9.0,90,0.00,,,0.00,,2013-03-22 13:22:00,
2013-03-22 09:32:00,26.0,23.0,29.85,NNW,338,3.0,8.0,89,0.00,,,0.00,,2013-03-22 13:32:00,
2013-03-22 09:42:00,26.0,23.0,29.85,NNW,338,3.0,8.0,89,0.00,,,0.00,,2013-03-22 13:42:00,
2013-03-22 09:52:00,26.0,23.0,29.86,NNW,332,3.0,6.0,90,0.00,,,0.00,,2013-03-22 13:52:00,
2013-03-22 10:02:00,26.0,23.0,29.86,NW,321,3.0,8.0,90,0.00,,,0.00,,2013-03-22 14:02:00,
2013-03-22 10:12:00,26.0,23.0,29.86,NW,321,3.0,8.0,90,0.00,,,0.00,,2013-03-22 14:12:00,
2013-03-22 10:22:00,27.0,25.0,29.86,North,349,3.0,6.0,91,0.00,,,0.00,,2013-03-22 14:22:00,
2013-03-22 10:32:00,27.0,24.0,29.87,North,360,3.0,11.0,90,0.00,,,0.00,,2013-03-22 14:32:00,
2013-03-22 10:42:00,27.0,24.0,29.87,North,360,3.0,11.0,90,0.00,,,0.00,,2013-03-22 14:42:00,
2013-03-22 10:52:00,27.0,24.0,29.88,NNW,327,4.0,8.0,88,0.00,,,0.00,,2013-03-22 14:52:00,
2013-03-22 11:03:00,27.0,23.0,29.87,NNW,334,7.0,14.0,84,0.00,,,0.00,,2013-03-22 15:03:00,
2013-03-22 11:12:00,27.0,23.0,29.87,NNW,334,7.0,14.0,84,0.00,,,0.00,,2013-03-22 15:12:00,
2013-03-22 11:22:00,27.0,23.0,29.88,NNE,15,6.0,12.0,84,0.00,,,0.00,,2013-03-22 15:22:00,
2013-03-22 11:33:00,28.0,24.0,29.88,NW,311,6.0,14.0,84,0.00,,,0.00,,2013-03-22 15:33:00,
2013-03-22 11:42:00,28.0,24.0,29.88,NW,311,6.0,14.0,84,0.00,,,0.00,,2013-03-22 15:42:00,
2013-03-22 11:53:00,28.0,23.0,29.88,NNE,13,6.0,15.0,81,0.00,,,0.00,,2013-03-22 15:53:00,
2013-03-22 12:03:00,28.0,22.0,29.89,NNW,342,4.0,18.0,79,0.00,,,0.00,,2013-03-22 16:03:00,
2013-03-22 12:13:00,28.0,22.0,29.89,North,360,5.0,12.0,78,0.00,,,0.00,,2013-03-22 16:13:00,
2013-03-22 12:23:00,28.0,22.0,29.89,North,360,5.0,12.0,78,0.00,,,0.00,,2013-03-22 16:23:00,
2013-03-22 12:32:00,28.0,22.0,29.89,North,355,5.0,11.0,78,0.00,,,0.00,,2013-03-22 16:32:00,
2013-03-22 12:42:00,28.0,22.0,29.89,NNW,327,5.0,13.0,79,0.00,,,0.00,,2013-03-22 16:42:00,
2013-03-22 12:52:00,28.0,22.0,29.89,NNW,327,5.0,13.0,79,0.00,,,0.00,,2013-03-22 16:52:00,
2013-03-22 13:03:00,28.0,22.0,29.89,WNW,284,5.0,10.0,78,0.00,,,0.00,,2013-03-22 17:03:00,
2013-03-22 13:12:00,29.0,22.0,29.89,NNW,348,6.0,10.0,76,0.00,,,0.00,,2013-03-22 17:12:00,
2013-03-22 13:23:00,29.0,22.0,29.89,NNW,348,6.0,10.0,76,0.00,,,0.00,,2013-03-22 17:23:00,
2013-03-22 13:32:00,29.0,22.0,29.89,NW,323,6.0,13.0,76,0.00,,,0.00,,2013-03-22 17:32:00,
2013-03-22 13:42:00,29.0,22.0,29.89,NW,323,6.0,13.0,76,0.00,,,0.00,,2013-03-22 17:42:00,
2013-03-22 13:53:00,29.0,22.0,29.89,NNE,26,4.0,11.0,75,0.00,,,0.00,,2013-03-22 17:53:00,
2013-03-22 14:02:00,30.0,23.0,29.90,WNW,295,4.0,10.0,74,0.00,,,0.00,,2013-03-22 18:02:00,
2013-03-22 14:12:00,30.0,23.0,29.90,WNW,295,4.0,10.0,74,0.00,,,0.00,,2013-03-22 18:12:00,
2013-03-22 14:22:00,30.0,23.0,29.90,NW,319,5.0,13.0,74,0.01,,,0.01,,2013-03-22 18:22:00,
2013-03-22 14:33:00,30.0,23.0,29.90,NW,319,5.0,13.0,74,0.01,,,0.01,,2013-03-22 18:33:00,
2013-03-22 14:42:00,30.0,23.0,29.90,NW,319,5.0,13.0,74,0.01,,,0.01,,2013-03-22 18:42:00,
2013-03-22 14:52:00,31.0,24.0,29.89,WNW,294,5.0,12.0,74,0.02,,,0.02,,2013-03-22 18:52:00,
2013-03-22 15:02:00,31.0,24.0,29.89,NNW,332,5.0,11.0,74,0.02,,,0.02,,2013-03-22 19:02:00,
2013-03-22 15:12:00,31.0,24.0,29.89,NNW,332,5.0,11.0,74,0.02,,,0.02,,2013-03-22 19:12:00,
2013-03-22 15:22:00,31.0,25.0,29.89,West,279,3.0,10.0,78,0.02,,,0.03,,2013-03-22 19:22:00,
2013-03-22 15:32:00,31.0,25.0,29.89,West,273,6.0,11.0,77,0.02,,,0.03,,2013-03-22 19:32:00,
2013-03-22 15:42:00,31.0,25.0,29.89,West,273,6.0,11.0,77,0.02,,,0.03,,2013-03-22 19:42:00,
2013-03-22 15:52:00,31.0,25.0,29.90,NW,311,2.0,7.0,78,0.01,,,0.03,,2013-03-22 19:52:00,
2013-03-22 16:02:00,31.0,25.0,29.90,NW,325,4.0,10.0,79,0.01,,,0.03,,2013-03-22 20:02:00,
2013-03-22 16:12:00,31.0,25.0,29.90,NW,325,4.0,10.0,79,0.01,,,0.03,,2013-03-22 20:12:00,
2013-03-22 16:22:00,31.0,25.0,29.90,West,273,2.0,10.0,79,0.01,,,0.04,,2013-03-22 20:22:00,
2013-03-22 16:32:00,31.0,26.0,29.90,West,280,4.0,12.0,80,0.01,,,0.04,,2013-03-22 20:32:00,
2013-03-22 16:43:00,31.0,26.0,29.90,West,280,4.0,12.0,80,0.01,,,0.04,,2013-03-22 20:43:00,
2013-03-22 16:52:00,31.0,26.0,29.91,NNE,22,5.0,11.0,80,0.01,,,0.04,,2013-03-22 20:52:00,
2013-03-22 17:03:00,31.0,26.0,29.91,West,267,3.0,11.0,80,0.01,,,0.04,,2013-03-22 21:03:00,
2013-03-22 17:12:00,31.0,26.0,29.91,WSW,257,3.0,11.0,80,0.00,,,0.04,,2013-03-22 21:12:00,
2013-03-22 17:22:00,31.0,26.0,29.91,WSW,257,3.0,11.0,80,0.00,,,0.04,,2013-03-22 21:22:00,
2013-03-22 17:33:00,31.0,26.0,29.92,NW,315,3.0,8.0,80,0.00,,,0.04,,2013-03-22 21:33:00,
2013-03-22 17:43:00,31.0,26.0,29.92,NW,315,3.0,8.0,80,0.00,,,0.04,,2013-03-22 21:43:00,
2013-03-22 17:53:00,31.0,26.0,29.91,West,279,3.0,9.0,81,0.00,,,0.04,,2013-03-22 21:53:00,
2013-03-22 18:03:00,31.0,26.0,29.92,West,267,5.0,11.0,80,0.00,,,0.04,,2013-03-22 22:03:00,
2013-03-22 18:12:00,31.0,26.0,29.92,West,267,5.0,11.0,80,0.00,,,0.04,,2013-03-22 22:12:00,
2013-03-22 18:23:00,31.0,26.0,29.92,West,267,4.0,15.0,81,0.00,,,0.04,,2013-03-22 22:23:00,
2013-03-22 18:32:00,31.0,26.0,29.93,WNW,300,3.0,14.0,81,0.00,,,0.04,,2013-03-22 22:32:00,
2013-03-22 18:42:00,31.0,26.0,29.93,WNW,300,3.0,14.0,81,0.00,,,0.04,,2013-03-22 22:42:00,
2013-03-22 18:53:00,31.0,26.0,29.93,WNW,300,3.0,14.0,81,0.00,,,0.04,,2013-03-22 22:53:00,
2013-03-22 19:02:00,31.0,26.0,29.94,WNW,296,2.0,9.0,82,0.00,,,0.04,,2013-03-22 23:02:00,
2013-03-22 19:12:00,31.0,26.0,29.94,WNW,296,2.0,9.0,82,0.00,,,0.04,,2013-03-22 23:12:00,
2013-03-22 19:22:00,30.0,25.0,29.95,WNW,286,3.0,7.0,83,0.00,,,0.04,,2013-03-22 23:22:00,
2013-03-22 19:32:00,30.0,25.0,29.95,West,280,4.0,10.0,83,0.00,,,0.04,,2013-03-22 23:32:00,
2013-03-22 19:42:00,30.0,25.0,29.95,West,280,4.0,10.0,83,0.00,,,0.04,,2013-03-22 23:42:00,
2013-03-22 19:52:00,30.0,25.0,29.95,SSW,209,1.0,11.0,83,0.00,,,0.04,,2013-03-22 23:52:00,
2013-03-22 20:02:00,30.0,26.0,29.96,NW,311,4.0,11.0,84,0.00,,,0.04,,2013-03-23 00:02:00,
2013-03-22 20:12:00,30.0,26.0,29.96,NW,311,4.0,11.0,84,0.00,,,0.04,,2013-03-23 00:12:00,
2013-03-22 20:23:00,30.0,26.0,29.96,West,276,2.0,9.0,84,0.00,,,0.04,,2013-03-23 00:23:00,
2013-03-22 20:33:00,30.0,26.0,29.97,WNW,291,4.0,13.0,84,0.00,,,0.04,,2013-03-23 00:33:00,
2013-03-22 20:42:00,30.0,26.0,29.97,West,273,3.0,11.0,85,0.00,,,0.04,,2013-03-23 00:42:00,
2013-03-22 20:52:00,30.0,26.0,29.97,West,273,3.0,11.0,85,0.00,,,0.04,,2013-03-23 00:52:00,
2013-03-22 21:03:00,30.0,26.0,29.97,West,270,5.0,11.0,85,0.00,,,0.04,,2013-03-23 01:03:00,
2013-03-22 21:12:00,30.0,26.0,29.97,West,270,5.0,11.0,85,0.00,,,0.04,,2013-03-23 01:12:00,
2013-03-22 21:22:00,30.0,26.0,29.97,West,270,5.0,11.0,85,0.00,,,0.04,,2013-03-23 01:22:00,
2013-03-22 21:32:00,30.0,26.0,29.97,SSW,195,2.0,8.0,85,0.00,,,0.04,,2013-03-23 01:32:00,
2013-03-22 21:42:00,30.0,26.0,29.97,SSW,195,2.0,8.0,85,0.00,,,0.04,,2013-03-23 01:42:00,
2013-03-22 21:52:00,30.0,26.0,29.98,West,275,4.0,11.0,86,0.00,,,0.04,,2013-03-23 01:52:00,
2013-03-22 22:02:00,30.0,26.0,29.98,West,275,4.0,11.0,86,0.00,,,0.04,,2013-03-23 02:02:00,
2013-03-22 22:12:00,30.0,26.0,29.98,West,275,4.0,11.0,86,0.00,,,0.04,,2013-03-23 02:12:00,
2013-03-22 22:22:00,30.0,26.0,29.98,WNW,294,3.0,13.0,86,0.00,,,0.04,,2013-03-23 02:22:00,
2013-03-22 22:32:00,29.0,25.0,29.98,WNW,289,4.0,10.0,86,0.00,,,0.04,,2013-03-23 02:32:00,
2013-03-22 22:42:00,29.0,25.0,29.98,WNW,289,4.0,10.0,86,0.00,,,0.04,,2013-03-23 02:42:00,
2013-03-22 22:52:00,29.0,25.0,29.98,NW,322,2.0,9.0,86,0.00,,,0.04,,2013-03-23 02:52:00,
2013-03-22 23:02:00,29.0,25.0,29.99,West,281,2.0,7.0,86,0.00,,,0.04,,2013-03-23 03:02:00,
2013-03-22 23:12:00,29.0,25.0,29.99,West,281,2.0,7.0,86,0.00,,,0.04,,2013-03-23 03:12:00,
2013-03-22 23:22:00,29.0,25.0,29.99,NW,325,3.0,10.0,86,0.00,,,0.04,,2013-03-23 03:22:00,
2013-03-22 23:33:00,29.0,25.0,29.99,West,264,4.0,10.0,86,0.00,,,0.04,,2013-03-23 03:33:00,
2013-03-22 23:43:00,29.0,25.0,29.99,West,264,4.0,10.0,86,0.00,,,0.04,,2013-03-23 03:43:00,
2013-03-22 23:53:00,29.0,25.0,29.99,West,276,3.0,11.0,86,0.00,,,0.04,,2013-03-23 03:53:00,